GW2295 Weather Reports


Display with metric or nautical units.
time (UTC)temp
F
wind
direction
speed
MPH
gust
MPH
rain 1hr
in
rain 24hr
in
rain mn
in
humidity
%
barometer
mb
20260504173236 66 0.0 0.0 0.00 0.00 0.00 44 1010.9
20260504172733 66 0.0 0.0 0.00 0.00 0.00 45 1010.9
20260504172230 66 0.0 0.0 0.00 0.00 0.00 45 1010.9
20260504171726 65 0.0 0.0 0.00 0.00 0.00 45 1010.9
20260504171223 65 0.0 0.0 0.00 0.00 0.00 45 1011.2
20260504170720 65 0.0 0.0 0.00 0.00 0.00 45 1011.5
20260504170217 65 0.0 0.0 0.00 0.00 0.00 45 1011.2
20260504160136 62 0.0 0.0 0.00 0.00 0.00 49 1012.2
20260504151103 60 0.0 0.0 0.00 0.00 0.00 51 1012.6
20260504150601 60 0.0 0.0 0.00 0.00 0.00 52 1012.6
20260504141026 57 0.0 0.0 0.00 0.00 0.00 59 1012.9
20260504140523 56 0.0 0.0 0.00 0.00 0.00 59 1012.6
20260504130447 52 0.0 0.0 0.00 0.00 0.00 65 1013.3
20260504110334 48 0.0 0.0 0.00 0.00 0.00 72 1013.7
20260504100252 48 0.0 0.0 0.00 0.00 0.00 73 1013.7
20260504081645 48 0.0 0.0 0.00 0.00 0.00 70 1014.0
20260504081141 48 0.0 0.0 0.00 0.00 0.00 70 1014.4
20260504080638 48 0.0 0.0 0.00 0.00 0.00 70 1014.4
20260504080134 48 0.0 0.0 0.00 0.00 0.00 70 1014.4
20260504050451 47 0.0 0.0 0.00 0.00 0.00 61 1014.4
20260504045948 47 0.0 0.0 0.00 0.00 0.00 61 1014.4
20260504045443 47 0.0 0.0 0.00 0.00 0.00 61 1014.4
20260504044940 47 0.0 0.0 0.00 0.00 0.00 61 1014.4
20260504044437 48 0.0 0.0 0.00 0.00 0.00 60 1014.4
20260504043935 48 0.0 0.0 0.00 0.00 0.00 60 1014.4
20260504043431 48 0.0 0.0 0.00 0.00 0.00 60 1014.4
20260504042929 48 0.0 0.0 0.00 0.00 0.00 60 1014.4
20260504042426 48 0.0 0.0 0.00 0.00 0.00 60 1014.4
20260504041922 48 0.0 0.0 0.00 0.00 0.00 59 1014.4
20260504041418 48 0.0 0.0 0.00 0.00 0.00 59 1014.4
20260504040914 48 0.0 0.0 0.00 0.00 0.00 59 1014.4
20260504040413 48 0.0 0.0 0.00 0.00 0.00 58 1014.4
20260504035908 48 0.0 0.0 0.00 0.00 0.00 57 1014.4
20260504035406 49 0.0 0.0 0.00 0.00 0.00 57 1014.4
20260504034902 49 0.0 0.0 0.00 0.00 0.00 57 1014.4
20260504034359 49 0.0 0.0 0.00 0.00 0.00 57 1014.4
20260504033856 49 0.0 0.0 0.00 0.00 0.00 56 1014.4
20260504033354 49 0.0 0.0 0.00 0.00 0.00 56 1014.4
20260504032851 49 0.0 0.0 0.00 0.00 0.00 56 1014.4
20260504032348 49 0.0 0.0 0.00 0.00 0.00 55 1014.0
20260504031844 50 0.0 0.0 0.00 0.00 0.00 55 1014.0
20260504031342 50 0.0 0.0 0.00 0.00 0.00 55 1013.7
20260504030838 50 0.0 0.0 0.00 0.00 0.00 55 1013.7
20260504030336 50 0.0 0.0 0.00 0.00 0.00 54 1013.7
20260504025832 50 0.0 0.0 0.00 0.00 0.00 54 1013.7
20260504025329 51 0.0 0.0 0.00 0.00 0.00 54 1014.0
20260504024825 51 0.0 0.0 0.00 0.00 0.00 54 1013.7
20260504024322 51 0.0 0.0 0.00 0.00 0.00 53 1014.0
20260504023819 51 0.0 0.0 0.00 0.00 0.00 53 1013.7
20260504023315 51 0.0 0.0 0.00 0.00 0.00 53 1013.7
20260504022811 51 0.0 0.0 0.00 0.00 0.00 53 1014.0
20260504022308 52 0.0 0.0 0.00 0.00 0.00 52 1014.0
20260504021804 52 0.0 0.0 0.00 0.00 0.00 52 1013.7
20260504021302 52 0.0 0.0 0.00 0.00 0.00 51 1013.7
20260504020759 52 0.0 0.0 0.00 0.00 0.00 50 1013.7
20260504020255 52 0.0 0.0 0.00 0.00 0.00 50 1013.7
20260504015751 52 0.0 0.0 0.00 0.00 0.00 50 1013.7
20260504015248 53 0.0 0.0 0.00 0.00 0.00 50 1013.7
20260504014744 53 0.0 0.0 0.00 0.00 0.00 50 1013.7
20260504014240 53 0.0 0.0 0.00 0.00 0.00 49 1014.0
20260504013738 53 0.0 0.0 0.00 0.00 0.00 49 1013.7
20260504013236 53 0.0 0.0 0.00 0.00 0.00 49 1013.7
20260504012732 54 0.0 0.0 0.00 0.00 0.00 48 1013.7
20260504012230 54 0.0 0.0 0.00 0.00 0.00 48 1013.7
20260504011726 54 0.0 0.0 0.00 0.00 0.00 48 1013.7
20260504011223 54 0.0 0.0 0.00 0.00 0.00 48 1013.7
20260504010719 55 0.0 0.0 0.00 0.00 0.00 47 1013.3
20260504010215 55 0.0 0.0 0.00 0.00 0.00 47 1013.7
20260504005712 55 0.0 0.0 0.00 0.00 0.00 47 1013.7
20260504005209 55 0.0 0.0 0.00 0.00 0.00 46 1013.3
20260504004707 55 0.0 0.0 0.00 0.00 0.00 46 1013.3
20260504004204 56 0.0 0.0 0.00 0.00 0.00 45 1013.3
20260504003700 56 0.0 0.0 0.00 0.00 0.00 44 1012.9
20260504003157 56 0.0 0.0 0.00 0.00 0.00 43 1013.3
20260504002654 56 0.0 0.0 0.00 0.00 0.00 43 1013.3
20260504002151 56 0.0 0.0 0.00 0.00 0.00 42 1012.9
20260504001649 57 0.0 0.0 0.00 0.00 0.00 42 1012.9
20260504001145 57 0.0 0.0 0.00 0.00 0.00 42 1012.9
20260504000642 57 0.0 0.0 0.00 0.00 0.00 41 1012.9
20260504000139 57 0.0 0.0 0.00 0.00 0.00 41 1012.9
20260503235637 57 0.0 0.0 0.00 0.00 0.00 40 1012.9
20260503235134 57 0.0 0.0 0.00 0.00 0.00 39 1012.9
20260503234632 58 0.0 0.0 0.00 0.00 0.00 39 1012.9
20260503234130 58 0.0 0.0 0.00 0.00 0.00 39 1012.6
20260503233627 58 0.0 0.0 0.00 0.00 0.00 38 1012.6
20260503233122 58 0.0 0.0 0.00 0.00 0.00 37 1012.6
20260503232619 58 0.0 0.0 0.00 0.00 0.00 37 1012.9
20260503232117 58 0.0 0.0 0.00 0.00 0.00 37 1012.6
20260503231615 58 0.0 0.0 0.00 0.00 0.00 37 1012.6
20260503231111 58 0.0 0.0 0.00 0.00 0.00 37 1012.2
20260503230609 58 0.0 0.0 0.00 0.00 0.00 37 1012.6
20260503230105 59 0.0 0.0 0.00 0.00 0.00 37 1012.2
20260503225602 59 0.0 0.0 0.00 0.00 0.00 37 1012.6
20260503225056 59 0.0 0.0 0.00 0.00 0.00 37 1012.6
20260503224549 59 0.0 0.0 0.00 0.00 0.00 36 1012.6
20260503224047 59 0.0 0.0 0.00 0.00 0.00 37 1012.6
20260503223544 59 0.0 0.0 0.00 0.00 0.00 37 1012.6
20260503223039 59 0.0 0.0 0.00 0.00 0.00 37 1012.6
20260503222538 59 0.0 0.0 0.00 0.00 0.00 36 1012.6
20260503222035 59 0.0 0.0 0.00 0.00 0.00 36 1012.6
20260503221533 59 0.0 0.0 0.00 0.00 0.00 36 1012.6
20260503221030 59 0.0 0.0 0.00 0.00 0.00 36 1012.2
20260503220526 59 0.0 0.0 0.00 0.00 0.00 36 1012.6
20260503220023 59 0.0 0.0 0.00 0.00 0.00 37 1012.9
20260503215520 59 0.0 0.0 0.00 0.00 0.00 37 1012.6
20260503215017 59 0.0 0.0 0.00 0.00 0.00 37 1012.6
20260503214516 59 0.0 0.0 0.00 0.00 0.00 37 1012.6
20260503214012 59 0.0 0.0 0.00 0.00 0.00 37 1012.6
20260503213511 59 0.0 0.0 0.00 0.00 0.00 37 1012.6
20260503213007 59 0.0 0.0 0.00 0.00 0.00 37 1012.6
20260503212504 59 0.0 0.0 0.00 0.00 0.00 36 1012.6
20260503212001 59 0.0 0.0 0.00 0.00 0.00 37 1012.6
20260503211458 59 0.0 0.0 0.00 0.00 0.00 37 1012.6
20260503210955 59 0.0 0.0 0.00 0.00 0.00 37 1012.6
20260503210452 59 0.0 0.0 0.00 0.00 0.00 38 1012.6
20260503205951 59 0.0 0.0 0.00 0.00 0.00 39 1012.6
20260503205449 59 0.0 0.0 0.00 0.00 0.00 39 1012.6
20260503204945 59 0.0 0.0 0.00 0.00 0.00 39 1012.6
20260503204442 59 0.0 0.0 0.00 0.00 0.00 40 1012.9
20260503203933 59 0.0 0.0 0.00 0.00 0.00 40 1012.6
20260503203431 59 0.0 0.0 0.00 0.00 0.00 41 1012.9
20260503202928 58 0.0 0.0 0.00 0.00 0.00 40 1012.9
20260503202426 58 0.0 0.0 0.00 0.00 0.00 41 1012.9
20260503201924 58 0.0 0.0 0.00 0.00 0.00 41 1012.9
20260503201421 58 0.0 0.0 0.00 0.00 0.00 41 1013.3
20260503200918 58 0.0 0.0 0.00 0.00 0.00 41 1013.3
20260503200414 58 0.0 0.0 0.00 0.00 0.00 42 1012.9
20260503195911 58 0.0 0.0 0.00 0.00 0.00 42 1012.9
20260503195409 58 0.0 0.0 0.00 0.00 0.00 42 1013.3
20260503194905 57 0.0 0.0 0.00 0.00 0.00 42 1013.3
20260503194402 57 0.0 0.0 0.00 0.00 0.00 42 1013.7
20260503193858 57 0.0 0.0 0.00 0.00 0.00 42 1013.3
20260503193353 57 0.0 0.0 0.00 0.00 0.00 42 1013.7
20260503192849 57 0.0 0.0 0.00 0.00 0.00 42 1013.7
20260503192345 57 0.0 0.0 0.00 0.00 0.00 43 1013.7
20260503191841 57 0.0 0.0 0.00 0.00 0.00 43 1013.7
20260503191339 57 0.0 0.0 0.00 0.00 0.00 43 1014.0
20260503190835 57 0.0 0.0 0.00 0.00 0.00 43 1013.7
20260503190333 57 0.0 0.0 0.00 0.00 0.00 43 1014.0
20260503185830 57 0.0 0.0 0.00 0.00 0.00 43 1014.0
20260503185325 57 0.0 0.0 0.00 0.00 0.00 43 1014.0
20260503184820 57 0.0 0.0 0.00 0.00 0.00 44 1014.0
20260503184316 56 0.0 0.0 0.00 0.00 0.00 44 1014.0
20260503183812 56 0.0 0.0 0.00 0.00 0.00 44 1014.0
20260503183310 56 0.0 0.0 0.00 0.00 0.00 44 1014.4
20260503182807 56 0.0 0.0 0.00 0.00 0.00 44 1014.4
20260503182306 56 0.0 0.0 0.00 0.00 0.00 44 1014.4
20260503181803 56 0.0 0.0 0.00 0.00 0.00 45 1014.4
20260503181300 55 0.0 0.0 0.00 0.00 0.00 46 1014.0
20260503180756 55 0.0 0.0 0.00 0.00 0.00 46 1014.4
20260503180254 55 0.0 0.0 0.00 0.00 0.00 47 1014.4
20260503175750 55 0.0 0.0 0.00 0.00 0.00 47 1014.4
20260503175249 55 0.0 0.0 0.00 0.00 0.00 47 1014.7
20260503174744 55 0.0 0.0 0.00 0.00 0.00 46 1014.7
20260503174242 55 0.0 0.0 0.00 0.00 0.00 47 1014.7
20260503173737 55 0.0 0.0 0.00 0.00 0.00 47 1014.7